Regional Weather Roundup
Issued by NWS Kansas City/Pleasant Hill, MO

Home | Current Version | Previous Version | Graphics & Text | Print | Product List | Glossary Off
Versions: 1 2 3 4 5 6 7 8 9 10 11 12 13 14 15 16 17 18 19 20 21 22 23 24 25 26 27

000
ASUS43 KEAX 222210
RWREAX

WEATHER ROUNDUP FOR EASTERN KANSAS AND NORTHWEST MISSOURI
NATIONAL WEATHER SERVICE KANSAS CITY/PLEASANT HILL MO
400 PM CST WED NOV 22 2017

KSZ040-057-103>105-MOZ028-029-037-043-222300-
...KANSAS CITY METROPOLITAN AREA...

CITY           SKY/WX    TMP DP  RH WIND       PRES   REMARKS
K.C. INTL      CLOUDY    40  15  36 S9        30.23F WCI  34
K.C. DOWNTOWN  CLEAR     44  16  32 SW9       30.25F
LEES SUMMIT    CLEAR     41  16  36 S13       30.24F WCI  34
OLATHE - IXD   CLOUDY    41  15  35 S8        30.24F
OLATHE - OJC   CLOUDY    40  16  37 S7        30.24F
LAWRENCE       PTCLDY    43  16  33 S7        30.24F

$$

MOZ001>008-011>017-020>025-030>033-038>040-044>046-053-054-222300-
...NORTHERN AND CENTRAL MISSOURI...

CITY           SKY/WX    TMP DP  RH WIND       PRES   REMARKS
ST. JOSEPH     CLOUDY    41  15  35 S8        30.25R
MOSBY          CLOUDY    41  12  30 S5        30.24F
WARRENSBURG    CLEAR     41  16  36 SW5       30.28F
WHITEMAN AFB   PTCLDY    40  15  35 SW6       30.23F
CLINTON        CLEAR     41  18  38 MISG      30.29F
SEDALIA        CLEAR     42  17  36 S6        30.28F
WARSAW         NOT AVBL
CHILLICOTHE      N/A     40  12  32 S6        30.27F
KIRKSVILLE     PTCLDY    38  12  34 SW8       30.26F WCI  32

$$

MOZ041-047>049-056>058-063>065-088>090-097-222300-
...EASTERN AND SOUTHERN MISSOURI...

CITY           SKY/WX    TMP DP  RH WIND       PRES   REMARKS
ST. LOUIS INTL MOCLDY    38  18  44 N3        30.30F
SPIRIT OF STL  CLEAR     40  17  39 CALM      30.30F
COLUMBIA       CLEAR     41  13  31 SW3       30.29R
JEFFERSON CITY CLEAR     42  14  32 CALM      30.30S
ROLLA          CLEAR     42  14  32 N3        30.28S
OSAGE BEACH    CLEAR     43  10  26 CALM      30.30S
SPRINGFIELD    CLEAR     45  13  27 SW3       30.27S
BRANSON        CLEAR     45  16  31 CALM      30.27F
JOPLIN         SUNNY     45  23  42 CALM      30.29F
WEST PLAINS    CLEAR     47  12  24 CALM      30.27S

$$

IAZ060-094-KSZ022-034>040-054-083-096-NEZ052-066-093-222300-
...KANSAS...SOUTHEAST NEBRASKA AND IOWA...

CITY           SKY/WX    TMP DP  RH WIND       PRES   REMARKS
TOPEKA         CLOUDY    45  17  32 S12       30.23F
MANHATTAN      SUNNY     49  18  29 S13       30.19F
EMPORIA        SUNNY     45  15  30 S10       30.23F
CHANUTE        SUNNY     43  17  35 SW5       30.30S
WICHITA        MOSUNNY   47  20  34 S12       30.22F
OMAHA          MOCLDY    41  16  36 S16       30.16S WCI  33
LINCOLN        CLEAR     43  17  35 S15       30.16F
FALLS CITY     CLEAR     42  15  33 S12       30.20F
LAMONI         CLOUDY    37  14  38 S10       30.21F WCI  30
DES MOINES     CLOUDY    38  13  35 S12       30.19F WCI  30

$$





USA.gov is the U.S. government's official web portal to all federal, state and local government web resources and services.